Tracking 27371 objects as of 7-Jun-2023
HD Live streaming from Space Station
objects crossing your sky now

FENGYUN 1C DEB

Track FENGYUN 1C DEB now!
10-day predictions


NORAD ID: 31820
Int'l Code: 1999-025CHJ
Perigee: 530.2 km
Apogee: 866.5 km
Inclination: 98.9 °
Period: 98.6 minutes
Semi major axis: 7069 km
RCS: 0.0132 m2 (small)
Launch date: May 10, 1999
Source: People's Republic of China (PRC)
Launch site: Taiyaun Space Center, China (TSC)

Note: This is SATELLITE DEBRIS
Your satellite tracking list
Your tracking list is empty




NASA's NSSDC Master Catalog

Two Line Element Set (TLE):
1 31820U 99025CHJ 23157.13328160  .00005817  00000-0  80954-3 0  9991
2 31820  98.9413 222.6004 0237921  10.7578 349.8583 14.60607510846927
Source of the keplerian elements: AFSPC